832  
ASUS42 KCAE 172310  
RWRCAE  
REGIONAL WEATHER ROUNDUP  
NATIONAL WEATHER SERVICE COLUMBIA SC  
700 PM EDT FRI AUG 17 2018  
 
NOTE: "FAIR" INDICATES FEW OR NO CLOUDS BELOW 12,000 FEET WITH NO  
SIGNIFICANT WEATHER AND/OR S TO VISIBILITY
.  
 
NOT ALL STATIONS ARE QUALITY CONTROLLED BY THE NATIONAL  
WEATHER SERVICE. USE DATA WITH CAUTION...ESPECIALLY  
DEWPOINT OBSERVATIONS.  
 
SCZ001>056-GAZ040-063>065-077-180000-   
..UPSTATE SOUTH CAROLINA
 
 
 
CITY SKY/WX TMP DP RH WIND PRES REMARKS
 
ANDERSON FAIR 81 73 76 SW6 30.08F  
LIBERTY FAIR 82 73 74 SW9 30.09S  
SPARTANBURG FAIR 82 70 65 SW6 30.07S HAZE  
CLEMSON FAIR 78 73 84 MISG 30.10S  
GREENVILLE FAIR 85 71 63 SW9 30.10S  
GREENWOOD FAIR 84 71 65 S9 30.09F  
GREER FAIR 83 71 67 SW12 30.09S  
ROCK HILL FAIR 85 72 65 SW8 30.07F  
CHESTER FAIR 84 66 54 SW3 30.08F  
LAURENS FAIR 86 70 58 SW8 30.08S  
 
   
..CENTRAL SOUTH CAROLINA
 
 
 
CITY SKY/WX TMP DP RH WIND PRES REMARKS
 
COLUMBIA APT PTSUNNY 88 74 63 SW8 30.07R HX 96  
COLUMBIA OWENS FAIR 82 76 81 CALM 30.08S  
ORANGEBURG FAIR 87 71 58 S8 30.08S  
NEWBERRY FAIR 84 72 65 SW8 30.11S  
AIKEN MOCLDY 82 73 74 S5 30.14R  
BARNWELL FAIR 77 73 88 CALM 30.11F  
MANNING FAIR 84 68 58 SW3 30.07F  
CAMDEN MOCLDY 88 73 62 CALM 30.07F HX 96  
LANCASTER FAIR 88 68 51 MISG 30.07F  
WINNSBORO MOCLDY 82 73 74 SW9 30.08S  
 
   
..EASTERN AND COASTAL SOUTH CAROLINA
 
 
 
CITY SKY/WX TMP DP RH WIND PRES REMARKS
 
MYRTLE BEACH FAIR 84 77 79 S16 30.10F  
N MYRTLE BCH FAIR 83 77 82 S18G26 30.08F  
CONWAY FAIR 88 72 58 S7 30.08S  
MARION FAIR 88 72 58 SW6 30.07S HAZE  
HARTSVILLE FAIR 88 70 55 SW5 30.06F  
FLORENCE FAIR 89 71 55 SW7 30.06F HX 95  
DARLINGTON FAIR 88 73 61 SW9 30.06F HX 95  
CHARLESTON APT FAIR 86 75 69 S13 30.10F HX 95  
WALTERBORO FAIR 88 73 62 S10 30.10S HX 96  
BEAUFORT FAIR 86 76 71 S7 30.11 HX 96  
 
   
..EASTERN GEORGIA
 
 
 
CITY SKY/WX TMP DP RH WIND PRES REMARKS
 
AUGUSTA BUSH F FAIR 85 75 72 SW7 30.09F  
AUGUSTA DANIEL FAIR 88 72 58 SW10 30.11S  
THOMSON FAIR 83 72 69 W3 30.15F  
CLAXTON FAIR 78 74 88 W5 30.09F  
SYLVANIA N/A 75 73 93 CALM 30.13R THUNDER  
STATESBORO PTSUNNY 75 73 92 CALM 30.10F  
SAVANNAH FAIR 85 74 69 S14 30.10F  
 
   
..SOUTHERN NORTH CAROLINA
 
 
 
CITY SKY/WX TMP DP RH WIND PRES REMARKS
 
CHARLOTTE PTSUNNY 85 71 63 SW9 30.07F  
MONROE FAIR 86 69 56 SW9 30.06S  
WADESBORO FAIR 88 69 52 S3 30.05S HAZE  
ROCKINGHAM FAIR 87 71 58 S7 30.05F  
RUTHERFORDTON LGT RAIN 73 73 100 CALM 30.11R  
ASHEVILLE FAIR 75 67 76 S9 30.16R  
 

 
 
 
CLICK HERE TO GO TO PREVIOUS BULLETINS.

The Nexlab SC Page
The Nexlab GA Page Main Text Page